Location: Mount Cross
(36.6390°N, 79.4878°W)
Time: 18:49:51
(UTC+00:00)

Courier 1B Rocket - Pass Details

Date: 29 March 2023
Orbit: 920 x 1202 km, 28.2° (Epoch: 05 June)

Event Time Altitude Azimuth Distance (km) Brightness Sun altitude
Rises 22:50:32 0° 228° (SW) 4,031 9.1 8.6°
Reaches altitude 10° 22:53:51 10° 218° (SW) 3,036 8.2 7.9°
Maximum altitude 23:00:00 28° 162° (SSE) 1,933 6.5 6.7°
Drops below altitude 10° 23:05:51 10° 106° (ESE) 2,874 6.9 5.5°
Sets 23:08:52 0° 95° (E) 3,781 7.4 4.9°
